Change the Weather History Date:

Monday, March 18, 2013

  Actual Average Record
Temperature  
Mean Temperature 34 °F -  
Max Temperature 41 °F 49 °F 74 °F (2011)
Min Temperature 27 °F 30 °F 24 °F (2005)
Degree Days  
Heating Degree Days 31    
Moisture  
Dew Point 31 °F    
Average Humidity 84    
Maximum Humidity 100    
Minimum Humidity 49    
Precipitation  
Precipitation 0.38 in - - ()
Sea Level Pressure  
Sea Level Pressure 30.11 in    
Wind  
Wind Speed 12 mph (ENE)    
Max Wind Speed 23 mph    
Max Gust Speed 29 mph    
Visibility 6 miles    
Events Rain    
Averages and records for this station are not official NWS values.
T = Trace of Precipitation, MM = Missing Value Source: NWS Daily Summary

Daily Weather History Graph

Daily Weather History Graph

Search for Another Location

Airport or City:

Trip Planner

Search our weather history database for the weather conditions in past years. The results will help you decide how hot, cold, wet, or windy it might be!

Date:

Astronomy

Mar. 18, 2013 Rise Set
Actual Time 7:04 AM EDT 7:08 PM EDT
Civil Twilight 6:37 AM EDT 7:35 PM EDT
Nautical Twilight 6:06 AM EDT 8:07 PM EDT
Astronomical Twilight 5:34 AM EDT 8:39 PM EDT
Moon 11:02 AM EDT (3/18) 1:05 AM EDT (3/18)
Length of Visible Light 12h 57m
Length of Day
12h 03m
Waxing Crescent, 40% of the Moon is Illuminated
Mar 18
Waxing Crescent
Mar 19
First Quarter
Mar 27
Full
Apr 3
Last Quarter
Apr 10
New

Hourly Weather History & Observations

Time (EDT) Temp. Windchill Dew Point Humidity Pressure Visibility Wind Dir Wind Speed Gust Speed Precip Events Conditions
12:55 AM 27.9 °F 21.5 °F 17.8 °F 66% 30.29 in 10.0 mi North 5.8 mph - N/A   Overcast
1:55 AM 28.2 °F 21.0 °F 16.3 °F 61% 30.29 in 10.0 mi North 6.9 mph - N/A   Partly Cloudy
2:55 AM 27.1 °F 21.8 °F 16.0 °F 63% 30.32 in 10.0 mi North 4.6 mph - N/A   Mostly Cloudy
3:55 AM 27.1 °F 20.7 °F 16.7 °F 65% 30.32 in 10.0 mi NNE 5.8 mph - N/A   Overcast
4:55 AM 28.4 °F 19.7 °F 16.9 °F 62% 30.33 in 10.0 mi NE 9.2 mph - N/A   Overcast
5:55 AM 28.0 °F 19.3 °F 16.0 °F 61% 30.35 in 10.0 mi NE 9.2 mph - N/A   Overcast
6:55 AM 29.1 °F 20.6 °F 13.6 °F 52% 30.36 in 10.0 mi NE 9.2 mph - N/A   Overcast
7:55 AM 29.7 °F 21.3 °F 14.2 °F 53% 30.36 in 10.0 mi NE 9.2 mph - N/A   Overcast
8:55 AM 31.6 °F 23.7 °F 16.2 °F 53% 30.36 in 10.0 mi NE 9.2 mph - N/A   Overcast
9:55 AM 33.4 °F 25.9 °F 19.0 °F 56% 30.35 in 10.0 mi ENE 9.2 mph - N/A   Overcast
10:55 AM 37.8 °F 29.0 °F 21.6 °F 52% 30.32 in 10.0 mi East 15.0 mph 19.6 mph N/A   Mostly Cloudy
11:55 AM 40.6 °F 33.0 °F 22.6 °F 49% 30.30 in 10.0 mi ESE 13.8 mph 24.2 mph N/A   Mostly Cloudy
12:55 PM 41.4 °F 32.7 °F 24.3 °F 51% 30.26 in 10.0 mi East 18.4 mph 25.3 mph N/A   Overcast
1:55 PM 39.0 °F 29.6 °F 27.1 °F 62% 30.23 in 10.0 mi East 18.4 mph 24.2 mph N/A   Overcast
1:57 PM 39.2 °F 29.8 °F 26.6 °F 61% 30.23 in 10.0 mi East 18.4 mph 24.2 mph N/A   Overcast
2:55 PM 36.7 °F 26.9 °F 28.9 °F 74% 30.19 in 10.0 mi ENE 17.3 mph 26.5 mph N/A   Overcast
3:11 PM 37.4 °F 29.8 °F 28.4 °F 70% 30.20 in 10.0 mi East 11.5 mph 25.3 mph N/A   Overcast
3:18 PM 37.4 °F 27.8 °F 28.4 °F 70% 30.19 in 10.0 mi East 17.3 mph 23.0 mph N/A   Overcast
3:19 PM 37.4 °F 27.2 °F 28.4 °F 70% 30.19 in 10.0 mi East 19.6 mph 23.0 mph N/A   Overcast
3:53 PM 35.6 °F 27.5 °F 30.2 °F 81% 30.18 in 10.0 mi ENE 11.5 mph 20.7 mph N/A   Overcast
3:55 PM 36.0 °F 26.7 °F 29.8 °F 78% 30.18 in 10.0 mi ENE 15.0 mph 20.7 mph N/A   Overcast
3:59 PM 35.6 °F 25.9 °F 30.2 °F 81% 30.17 in 9.0 mi ENE 16.1 mph 20.7 mph N/A   Overcast
4:00 PM 35.6 °F 25.9 °F 30.2 °F 81% 30.17 in 9.0 mi East 16.1 mph 20.7 mph N/A   Overcast
4:06 PM 35.6 °F 26.6 °F 30.2 °F 81% 30.17 in 7.0 mi East 13.8 mph - N/A   Overcast
4:09 PM 35.6 °F 28.0 °F 32.0 °F 87% 30.17 in 7.0 mi ENE 10.4 mph - N/A   Overcast
4:31 PM 35.6 °F 26.6 °F 32.0 °F 87% 30.16 in 4.0 mi ENE 13.8 mph - N/A   Overcast
4:41 PM 35.6 °F 27.1 °F 32.0 °F 87% 30.16 in 3.0 mi ENE 12.7 mph - N/A   Overcast
4:43 PM 35.6 °F 27.5 °F 32.0 °F 87% 30.16 in 3.0 mi ENE 11.5 mph - N/A   Overcast
4:47 PM 35.6 °F 27.1 °F 32.0 °F 87% 30.16 in 2.5 mi ENE 12.7 mph - N/A   Overcast
4:52 PM 35.6 °F 27.5 °F 33.8 °F 93% 30.16 in 3.0 mi ENE 11.5 mph 19.6 mph N/A   Overcast
4:55 PM 34.9 °F 26.2 °F 32.9 °F 92% 30.16 in 3.0 mi ENE 12.7 mph 19.6 mph N/A   Overcast
5:26 PM 35.6 °F 27.1 °F 33.8 °F 93% 30.12 in 2.5 mi East 12.7 mph 24.2 mph N/A   Overcast
5:29 PM 35.6 °F 26.2 °F 33.8 °F 93% 30.12 in 2.5 mi ENE 15.0 mph 24.2 mph N/A   Overcast
5:33 PM 35.6 °F 26.2 °F 33.8 °F 93% 30.12 in 3.0 mi ENE 15.0 mph 24.2 mph N/A   Overcast
5:39 PM 35.6 °F 25.9 °F 33.8 °F 93% 30.11 in 3.0 mi East 16.1 mph 20.7 mph N/A   Overcast
5:44 PM 35.6 °F 25.9 °F 33.8 °F 93% 30.11 in 3.0 mi East 16.1 mph 20.7 mph N/A   Overcast
5:55 PM 35.2 °F 25.4 °F 33.6 °F 94% 30.10 in 3.0 mi East 16.1 mph 27.6 mph 0.00 in   Overcast
6:04 PM 35.6 °F 25.5 °F 33.8 °F 93% 30.09 in 5.0 mi East 17.3 mph 27.6 mph N/A   Overcast
6:25 PM 35.6 °F 25.9 °F 33.8 °F 93% 30.09 in 6.0 mi ENE 16.1 mph 23.0 mph N/A   Overcast
6:36 PM 35.6 °F 25.9 °F 33.8 °F 93% 30.09 in 7.0 mi ENE 16.1 mph 28.8 mph N/A   Overcast
6:54 PM 35.6 °F 26.2 °F 33.8 °F 93% 30.06 in 9.0 mi East 15.0 mph 24.2 mph N/A   Overcast
6:55 PM 35.2 °F 25.8 °F 33.8 °F 94% 30.06 in 9.0 mi East 15.0 mph 24.2 mph 0.00 in   Overcast
7:19 PM 35.6 °F 25.5 °F 33.8 °F 93% 30.05 in 5.0 mi East 17.3 mph 23.0 mph N/A   Overcast
7:22 PM 35.6 °F 25.5 °F 33.8 °F 93% 30.05 in 4.0 mi East 17.3 mph 24.2 mph N/A   Overcast
7:23 PM 35.6 °F 25.5 °F 33.8 °F 93% 30.05 in 4.0 mi East 17.3 mph 24.2 mph N/A   Overcast
7:31 PM 35.6 °F 25.9 °F 33.8 °F 93% 30.06 in 3.0 mi East 16.1 mph 24.2 mph N/A   Overcast
7:46 PM 35.6 °F 26.6 °F 35.6 °F 100% 30.05 in 3.0 mi ENE 13.8 mph 21.9 mph N/A   Overcast
7:55 PM 36.3 °F 28.0 °F 35.1 °F 95% 30.04 in 4.0 mi ENE 12.7 mph - 0.06 in   Overcast
7:56 PM 35.6 °F 26.6 °F 35.6 °F 100% 30.04 in 5.0 mi ENE 13.8 mph - N/A   Overcast
8:03 PM 35.6 °F 26.6 °F 35.6 °F 100% 30.04 in 6.0 mi ENE 13.8 mph - N/A   Overcast
8:15 PM 35.6 °F 26.6 °F 35.6 °F 100% 30.04 in 5.0 mi ENE 13.8 mph - N/A   Overcast
8:28 PM 35.6 °F 28.0 °F 35.6 °F 100% 30.04 in 3.0 mi ENE 10.4 mph - N/A   Overcast
8:30 PM 37.4 °F 28.9 °F 35.6 °F 93% 30.04 in 3.0 mi ENE 13.8 mph - N/A   Overcast
8:55 PM 37.0 °F 28.9 °F 36.0 °F 96% 30.02 in 3.0 mi East 12.7 mph - 0.06 in   Overcast
9:08 PM 37.4 °F 28.9 °F 35.6 °F 93% 30.01 in 4.0 mi ENE 13.8 mph - N/A   Overcast
9:20 PM 37.4 °F 28.9 °F 37.4 °F 100% 30.01 in 5.0 mi ENE 13.8 mph - N/A   Overcast
9:35 PM 37.4 °F 28.2 °F 37.4 °F 100% 29.99 in 5.0 mi ENE 16.1 mph - N/A   Overcast
9:36 PM 37.4 °F 28.5 °F 37.4 °F 100% 30.00 in 5.0 mi ENE 15.0 mph - N/A   Overcast
9:40 PM 37.4 °F 28.2 °F 37.4 °F 100% 29.99 in 5.0 mi ENE 16.1 mph - N/A   Overcast
9:49 PM 37.4 °F 28.9 °F 37.4 °F 100% 29.99 in 6.0 mi ENE 13.8 mph - N/A   Overcast
9:55 PM 38.3 °F 30.1 °F 37.2 °F 96% 29.99 in 6.0 mi ENE 13.8 mph 23.0 mph 0.07 in   Overcast
10:00 PM 39.2 °F 30.8 °F 37.4 °F 93% 29.99 in 6.0 mi ENE 15.0 mph 23.0 mph N/A   Overcast
10:54 PM 39.2 °F 31.6 °F 37.4 °F 93% 29.96 in 5.0 mi NE 12.7 mph - N/A Rain Light Rain
10:55 PM 38.5 °F 30.3 °F 37.4 °F 96% 29.96 in 6.0 mi NE 13.8 mph - 0.10 in Rain Light Rain
11:08 PM 39.2 °F 28.7 °F 37.4 °F 93% 29.94 in 6.0 mi ENE 23.0 mph - N/A Rain Light Rain
11:12 PM 39.2 °F 30.2 °F 37.4 °F 93% 29.95 in 5.0 mi ENE 17.3 mph - N/A Rain Light Rain
11:15 PM 39.2 °F 32.0 °F 37.4 °F 93% 29.95 in 5.0 mi NE 11.5 mph - N/A Rain Light Rain
11:19 PM 39.2 °F 33.0 °F 37.4 °F 93% 29.95 in 5.0 mi NNE 9.2 mph - N/A Rain Light Rain
11:22 PM 39.2 °F 35.0 °F 37.4 °F 93% 29.95 in 6.0 mi NNE 5.8 mph - N/A Rain Light Rain
11:35 PM 39.2 °F 31.2 °F 37.4 °F 93% 29.93 in 8.0 mi NNE 13.8 mph - N/A Rain Rain
11:52 PM 39.2 °F 30.8 °F 37.4 °F 93% 29.91 in 7.0 mi NE 15.0 mph - N/A Rain Rain
11:55 PM 38.3 °F 30.1 °F 37.2 °F 96% 29.91 in 6.0 mi NE 13.8 mph - 0.09 in Rain Light Rain
11:56 PM 39.2 °F 31.2 °F 37.4 °F 93% 29.91 in 6.0 mi NE 13.8 mph - N/A Rain Light Rain